When you browse on this site, cookies collect data to enhance your experience and personalize the content and advertising you see.
Visit our Privacy Policy to learn more. By continuing to use the site, you agree to this use of cookies and data.

Météo par heure à Brégence

Ce jour, 7 Juillet, Mardi

Heure Température Précipitation Vent Pression Humidité
00:00 +7°C° 0 mm 1 m/s 648 mmHg 86%
01:00 +6°C° 0 mm 0 m/s 648 mmHg 86%
02:00 +5°C° 0 mm 0 m/s 648 mmHg 89%
03:00 +4°C° 0 mm 0 m/s 648 mmHg 91%
04:00 +3°C° 0 mm 0 m/s 647 mmHg 93%
05:00 +5°C° 0 mm 0 m/s 648 mmHg 90%
06:00 +6°C° 0 mm 0 m/s 648 mmHg 86%
07:00 +7°C° 0 mm 0 m/s 649 mmHg 82%
08:00 +10°C° 0 mm 1 m/s 649 mmHg 72%
09:00 +12°C° 0 mm 1 m/s 649 mmHg 63%
10:00 +14°C° 0 mm 1 m/s 650 mmHg 53%
11:00 +15°C° 0 mm 1 m/s 650 mmHg 50%
12:00 +16°C° 0 mm 2 m/s 650 mmHg 48%
13:00 +17°C° 0 mm 2 m/s 650 mmHg 45%
14:00 +17°C° 0 mm 2 m/s 650 mmHg 47%
15:00 +17°C° 0 mm 2 m/s 649 mmHg 48%
16:00 +17°C° 0 mm 2 m/s 649 mmHg 50%
17:00 +16°C° 0 mm 2 m/s 649 mmHg 57%
18:00 +15°C° 0 mm 2 m/s 649 mmHg 65%
19:00 +14°C° 0 mm 1 m/s 649 mmHg 72%
20:00 +12°C° 0 mm 1 m/s 648 mmHg 77%
21:00 +10°C° 0 mm 1 m/s 648 mmHg 82%
22:00 +8°C° 0 mm 1 m/s 648 mmHg 88%
23:00 +8°C° 0 mm 1 m/s 648 mmHg 88%

Demain, 8 Juillet, Mercredi

Heure Température Précipitation Vent Pression Humidité
00:00 +8°C° 0 mm 1 m/s 647 mmHg 88%
01:00 +7°C° 0 mm 1 m/s 647 mmHg 87%
02:00 +7°C° 0 mm 1 m/s 647 mmHg 87%
03:00 +7°C° 0 mm 1 m/s 647 mmHg 88%
04:00 +7°C° 0 mm 1 m/s 647 mmHg 88%
05:00 +8°C° 0 mm 1 m/s 647 mmHg 82%
06:00 +10°C° 0 mm 1 m/s 648 mmHg 77%
07:00 +11°C° 0 mm 0 m/s 648 mmHg 72%
08:00 +14°C° 0 mm 1 m/s 649 mmHg 65%
09:00 +16°C° 0 mm 1 m/s 649 mmHg 58%
10:00 +18°C° 0 mm 1 m/s 650 mmHg 51%
11:00 +19°C° 0 mm 1 m/s 650 mmHg 49%
12:00 +19°C° 0 mm 2 m/s 650 mmHg 46%
13:00 +20°C° 0 mm 2 m/s 650 mmHg 44%
14:00 +20°C° 0 mm 2 m/s 650 mmHg 45%
15:00 +20°C° 0 mm 2 m/s 650 mmHg 45%
16:00 +20°C° 0 mm 2 m/s 650 mmHg 46%
17:00 +19°C° 0 mm 2 m/s 650 mmHg 55%
18:00 +19°C° 0 mm 1 m/s 650 mmHg 63%
19:00 +16°C° 0 mm 1 m/s 650 mmHg 72%
20:00 +14°C° 0 mm 1 m/s 649 mmHg 76%
21:00 +13°C° 0 mm 1 m/s 649 mmHg 81%
22:00 +10°C° 0 mm 0 m/s 649 mmHg 86%
23:00 +10°C° 0 mm 1 m/s 649 mmHg 86%

Après-demain, 9 Juillet, Jeudi

Heure Température Précipitation Vent Pression Humidité
00:00 +10°C° 0 mm 1 m/s 649 mmHg 86%
01:00 +10°C° 0 mm 1 m/s 649 mmHg 86%
02:00 +10°C° 0 mm 1 m/s 649 mmHg 85%
03:00 +10°C° 0 mm 1 m/s 649 mmHg 84%
04:00 +10°C° 0 mm 1 m/s 649 mmHg 84%
05:00 +11°C° 0 mm 1 m/s 649 mmHg 80%
06:00 +11°C° 0 mm 0 m/s 649 mmHg 76%
07:00 +13°C° 0 mm 0 m/s 650 mmHg 72%
08:00 +15°C° 0 mm 0 m/s 650 mmHg 67%
09:00 +18°C° 0 mm 1 m/s 651 mmHg 62%
10:00 +20°C° 0 mm 1 m/s 651 mmHg 56%
11:00 +21°C° 0 mm 1 m/s 651 mmHg 54%
12:00 +22°C° 0 mm 1 m/s 651 mmHg 51%
13:00 +23°C° 0 mm 1 m/s 651 mmHg 49%
14:00 +23°C° 0 mm 1 m/s 651 mmHg 50%
15:00 +23°C° 0 mm 1 m/s 651 mmHg 51%
16:00 +23°C° 0 mm 1 m/s 650 mmHg 52%
17:00 +22°C° 0.1 mm 1 m/s 650 mmHg 60%
18:00 +20°C° 0.1 mm 1 m/s 650 mmHg 68%
19:00 +19°C° 0.1 mm 1 m/s 649 mmHg 76%
20:00 +18°C° 0 mm 1 m/s 649 mmHg 77%
21:00 +15°C° 0 mm 1 m/s 649 mmHg 79%
22:00 +14°C° 0 mm 1 m/s 649 mmHg 80%
23:00 +13°C° 0 mm 2 m/s 648 mmHg 80%

10 Juillet, Vendredi

Heure Température Précipitation Vent Pression Humidité
00:00 +13°C° 0 mm 2 m/s 648 mmHg 80%
01:00 +13°C° 0 mm 2 m/s 648 mmHg 79%
02:00 +13°C° 0 mm 2 m/s 647 mmHg 79%
03:00 +13°C° 0 mm 2 m/s 647 mmHg 79%
04:00 +12°C° 0 mm 2 m/s 647 mmHg 79%
05:00 +14°C° 0 mm 2 m/s 647 mmHg 76%
06:00 +15°C° 0 mm 1 m/s 647 mmHg 74%
07:00 +18°C° 0 mm 1 m/s 648 mmHg 72%
08:00 +18°C° 0 mm 2 m/s 648 mmHg 65%
09:00 +20°C° 0 mm 2 m/s 648 mmHg 59%
10:00 +23°C° 0 mm 2 m/s 649 mmHg 52%
11:00 +21°C° 0.3 mm 3 m/s 649 mmHg 57%
12:00 +21°C° 0.3 mm 3 m/s 649 mmHg 62%
13:00 +21°C° 0.3 mm 4 m/s 648 mmHg 66%
14:00 +19°C° 1.5 mm 4 m/s 648 mmHg 75%
15:00 +18°C° 1.5 mm 3 m/s 648 mmHg 83%
16:00 +16°C° 1.5 mm 3 m/s 648 mmHg 91%
17:00 +14°C° 1.7 mm 3 m/s 648 mmHg 92%
18:00 +14°C° 1.7 mm 2 m/s 648 mmHg 93%
19:00 +13°C° 1.7 mm 2 m/s 648 mmHg 94%
20:00 +12°C° 0.8 mm 2 m/s 648 mmHg 94%
21:00 +12°C° 0.8 mm 1 m/s 648 mmHg 94%
22:00 +11°C° 0.8 mm 1 m/s 649 mmHg 94%
23:00 +11°C° 0.2 mm 1 m/s 648 mmHg 94%

11 Juillet, Samedi

Heure Température Précipitation Vent Pression Humidité
00:00 +10°C° 0.2 mm 1 m/s 648 mmHg 93%
01:00 +9°C° 0.2 mm 1 m/s 648 mmHg 92%
02:00 +9°C° 0 mm 1 m/s 648 mmHg 93%
03:00 +9°C° 0 mm 1 m/s 648 mmHg 93%
04:00 +8°C° 0 mm 1 m/s 648 mmHg 94%
05:00 +8°C° 0 mm 1 m/s 648 mmHg 92%
06:00 +8°C° 0 mm 0 m/s 648 mmHg 91%
07:00 +8°C° 0 mm 0 m/s 649 mmHg 90%
08:00 +10°C° 0 mm 1 m/s 649 mmHg 83%
09:00 +12°C° 0 mm 1 m/s 649 mmHg 77%
10:00 +13°C° 0 mm 1 m/s 650 mmHg 70%
11:00 +14°C° 0 mm 1 m/s 650 mmHg 67%
12:00 +15°C° 0 mm 1 m/s 650 mmHg 64%
13:00 +15°C° 0 mm 1 m/s 650 mmHg 60%
14:00 +16°C° 0 mm 2 m/s 651 mmHg 58%
15:00 +16°C° 0 mm 2 m/s 651 mmHg 56%
16:00 +16°C° 0 mm 2 m/s 651 mmHg 53%
17:00 +15°C° 0 mm 2 m/s 651 mmHg 59%
18:00 +14°C° 0 mm 2 m/s 651 mmHg 66%
19:00 +13°C° 0 mm 2 m/s 650 mmHg 72%
20:00 +12°C° 0 mm 1 m/s 650 mmHg 78%
21:00 +10°C° 0 mm 1 m/s 650 mmHg 84%
22:00 +8°C° 0 mm 1 m/s 650 mmHg 90%
23:00 +7°C° 0 mm 1 m/s 649 mmHg 91%

12 Juillet, Dimanche

Heure Température Précipitation Vent Pression Humidité
00:00 +7°C° 0 mm 1 m/s 649 mmHg 91%
01:00 +6°C° 0 mm 1 m/s 649 mmHg 91%
02:00 +6°C° 0 mm 1 m/s 649 mmHg 92%
03:00 +6°C° 0 mm 1 m/s 649 mmHg 92%
04:00 +5°C° 0 mm 1 m/s 649 mmHg 92%
05:00 +7°C° 0 mm 1 m/s 649 mmHg 87%
06:00 +9°C° 0 mm 1 m/s 650 mmHg 82%
07:00 +9°C° 0 mm 0 m/s 651 mmHg 77%
08:00 +12°C° 0 mm 1 m/s 651 mmHg 70%
09:00 +14°C° 0 mm 1 m/s 652 mmHg 63%
10:00 +16°C° 0 mm 2 m/s 652 mmHg 55%
11:00 +17°C° 0 mm 2 m/s 652 mmHg 53%
12:00 +18°C° 0 mm 3 m/s 653 mmHg 51%
13:00 +19°C° 0 mm 3 m/s 653 mmHg 48%
14:00 +19°C° 0 mm 3 m/s 653 mmHg 50%
15:00 +19°C° 0 mm 3 m/s 652 mmHg 52%
16:00 +19°C° 0 mm 3 m/s 652 mmHg 54%
17:00 +17°C° 0 mm 3 m/s 652 mmHg 60%
18:00 +16°C° 0 mm 2 m/s 652 mmHg 66%
19:00 +15°C° 0 mm 2 m/s 651 mmHg 73%
20:00 +13°C° 0 mm 2 m/s 651 mmHg 78%
21:00 +11°C° 0 mm 1 m/s 651 mmHg 84%
22:00 +9°C° 0 mm 1 m/s 650 mmHg 89%
23:00 +9°C° 0 mm 1 m/s 650 mmHg 90%
Voir plus